Weather in Urlyadinskiy

Russia / Chelyabinsk Oblast     54°01′35″N   59°25′13″E
temp.,
°C
wind,
m/s
gust,
m/s
humid.,
%
clouds,
%
prec.,
mm/h
press.,
hPa
HPBL,
m
26 july, mon
mon2623:00+11n22670 0.0 101819
02:00+10nnw22670 0.0 102022
05:00+9nnw22660 0.0 102116
08:00+13nnw36560 0.0 1021344
11:00+17n34438 0.0 10201802
14:00+19nw243788 0.0 10192358
17:00+19n4439100 0.0 10181925
20:00+16n345184 0.0 1019112
27 july, tue
tue2723:00+13n115570 0.0 102010
02:00+10w11655 0.0 102010
05:00+9w226671 0.0 101919
08:00+14wsw365369 0.0 1018238
11:00+19w564123 0.0 10162044
14:00+19wnw5643100 0.0 10151881
17:00+20w364562 0.0 10141393
20:00+17wsw355814 0.0 1013135
28 july, wed
wed2823:00+15w386088 0.0 1013200
02:00+14w396685 0.0 1012267
05:00+11nw238824 0.1 101242
08:00+14nnw35732 0.0 1013539
11:00+16nnw555297 0.2 10131682
14:00+19nnw563728 0.0 10132306
17:00+19nnw673622 0.0 10132265
20:00+15nnw34540 0.0 101485
29 july, thu
thu2923:00+11wnw116115 0.0 101510
02:00+12sw225699 0.0 101442
05:00+9wsw34676 0.0 101558
08:00+14wsw59535 0.0 1014309
11:00+20w67384 0.0 10131588
14:00+22wsw5734100 0.0 10122543
17:00+22w6837100 0.0 10112239
20:00+20wsw4855100 0.0 1010219
30 july, fri
fri3023:00+16w3775100 0.2 1010187
02:00+14s3994100 1.9 1008289
05:00+15wsw61484100 3.3 1006558
08:00+17wsw51177100 0.0 1006673
11:00+21wnw686972 0.2 1006987
14:00+23w596266 1.0 10061637
17:00+23wnw256470 1.6 1005424
20:00+20wsw487598 0.1 1006187